Location: Biesheim
(48.0412°N, 7.5447°E)
Time: 01:54:17
(UTC+00:00)

Daily predictions for brighter satellites

Satellite Brightness Start Highest point End
(mag) Time Altitude Azimuth Time Altitude Azimuth Time Altitude Azimuth
Cosmos 2344 4.2 02:53:31 48° ESE 02:53:31 48° ESE 03:00:06 10° NE
USA 215 3.6 03:19:44 10° E 03:25:43 56° NE 03:25:43 56° NE
Cosmos 2369 Rocket 4.3 03:33:45 10° SSE 03:38:04 23° ESE 03:42:25 10° NE
NOSS 3-3 (A) 4.4 03:44:27 79° NW 03:45:02 88° SW 03:53:31 10° SE
NOSS 3-3 (C) 4.4 03:44:31 79° NW 03:45:08 88° SW 03:53:36 10° SE
COSMO-SKYMED 1 4.4 03:44:20 10° SE 03:48:04 28° ENE 03:48:36 28° NE
Cosmos 1867 4.5 03:50:15 41° SSE 03:50:15 41° SSE 03:53:43 10° SE
MOS 1-B Rocket 4.5 03:45:07 10° SE 03:51:13 55° ENE 03:54:14 27° N
Tsikada Rocket 4.4 03:46:43 10° S 03:52:47 61° E 03:58:57 10° NNE
Gblst 52 Del rocket 4.4 03:54:35 76° SE 03:54:35 76° SE 04:01:07 10° ENE
Cosmos 1943 Rocket 2.1 04:06:38 76° S 04:07:01 82° ESE 04:12:43 10° NNE
CZ-2C R/B 3.4 04:03:53 10° SE 04:09:11 52° ENE 04:13:24 16° N
Cosmos 1241 Rocket 4.2 04:10:32 76° WSW 04:10:41 77° WSW 04:16:51 10° SSE
SL-19 R/B 4.3 04:05:50 10° SSE 04:11:25 78° ENE 04:13:20 43° N
SL-8 R/B 3.8 04:16:23 72° E 04:16:23 72° E 04:20:42 10° E
CENTAUR R/B 2.4 04:16:08 60° SW 04:17:23 85° NW 04:24:37 10° NE
Cosmos 2297 3.6 04:21:07 65° SW 04:21:57 80° WNW 04:27:43 10° NNE
NOSS 3-2 (A) 3.3 04:27:49 59° WNW 04:28:25 62° NW 04:35:01 10° NE
Cosmos 2278 Rocket 3.9 04:33:50 19° NNW 04:33:50 19° NNW 04:36:07 10° N
Envisat 3.2 04:30:15 10° NNE 04:35:21 71° ESE 04:40:25 10° S
NOSS 3-2 (C) 3.2 04:33:35 39° SW 04:35:55 86° NW 04:42:29 10° NE
SKYMED 2 3.5 04:31:36 10° SSE 04:35:56 82° ENE 04:37:12 46° N
Cosmos 2098 Rocket 3.3 04:38:12 10° S 04:42:01 66° E 04:46:54 10° NNE
Meteor 2-3 Rocket 3.7 04:37:06 10° SSW 04:42:42 62° WNW 04:48:25 10° N
Landsat 5 3.7 04:41:04 10° SSE 04:45:35 80° ENE 04:48:26 22° N
Cosmos 968 Rocket 3.3 04:42:38 22° SSW 04:46:03 74° WNW 04:51:12 10° NNE
Meteor 2-13 Rocket 4.3 04:41:01 10° S 04:47:09 83° W 04:53:16 10° N
CZ-4B R/B 4.3 04:43:24 10° NNE 04:47:52 75° ESE 04:52:20 10° S
Genesis I 4.1 04:49:24 37° SSW 04:49:24 37° SSW 04:52:26 10° SSE
FALCON 9 DEB 4.4 04:49:58 28° NE 04:49:58 28° NE 04:51:35 10° ENE
Cosmos 921 Rocket 3.0 04:50:35 57° W 04:50:51 59° WSW 04:55:13 10° S
Okean 3 Rocket 4.0 04:49:11 10° S 04:53:39 64° E 04:58:11 10° NNE
DNEPR-1 R/B 3.8 04:53:15 37° NW 04:55:11 88° NE 05:00:47 10° SE
Cosmos 1833 4.3 04:51:16 20° NNW 04:55:18 75° ENE 05:01:01 10° SSE
H-2A R/B 3.6 04:52:27 10° SE 04:56:19 34° ENE 05:00:16 10° N
Meteor 1-26 Rocket 4.5 04:53:51 26° NW 04:56:47 47° W 05:02:17 10° SSW
Cosmos 1812 2.6 04:56:57 61° WNW 04:57:14 64° W 05:01:02 10° S
CBERS 1 LM4 rocket 4.3 04:53:43 10° NNE 04:58:35 90° W 05:03:34 10° SSW
ADEOS 4.1 04:53:41 10° NNE 04:58:52 59° ESE 05:04:01 10° S
Cosmos 2142 Rocket 4.4 04:57:33 10° NNW 05:03:54 78° W 05:10:17 10° S
Cosmos 1151 Rocket 2.9 05:01:35 24° NNW 05:04:05 65° W 05:08:25 10° S
USA 238 DEB 3.7 05:00:11 25° WSW 05:04:07 59° NW 05:11:00 10° NE
USA 238 3.7 05:00:14 24° WSW 05:04:13 60° NW 05:11:06 10° NE
CZ-2C R/B 4.0 05:02:09 10° NNE 05:06:50 47° E 05:11:41 10° S
Cosmos 1766 Rocket 3.4 05:02:30 10° S 05:06:51 84° WNW 05:11:12 10° N
Cosmos 2344 3.8 05:03:35 28° W 05:07:15 46° NNW 05:15:08 10° NE
Cosmos 2263 4.3 05:02:06 10° SSW 05:07:47 82° ESE 05:13:33 10° NNE
USA 215 3.3 05:02:34 10° SE 05:09:03 65° SW 05:13:04 25° WNW
Kosmos-917 4.2 05:12:29 37° WNW 05:13:01 41° NNW 05:18:12 10° NE
Meteor 1-31 Rocket 2.7 05:09:56 10° N 05:13:47 59° WNW 05:17:37 10° SSW
Cosmos 2279 Rocket 3.9 05:08:30 10° NNW 05:14:40 69° W 05:20:47 10° S
Cosmos 2297 Rocket 4.3 05:11:11 10° N 05:15:20 20° NE 05:19:28 10° E
Cosmos 1328 Rocket 3.4 05:12:41 12° NNW 05:16:47 68° W 05:21:05 10° S
IRAS Rocket 4.2 05:12:11 10° SSE 05:17:43 89° E 05:23:15 10° NNW
BREEZE-M DEB (TANK) 4.4 05:05:27 10° SW 05:17:49 46° SSE 05:21:30 10° E
SJ-12 4.3 05:15:15 10° N 05:19:09 40° WNW 05:23:01 10° SW
Cosmos 2369 Rocket 2.1 05:16:07 10° SW 05:21:38 61° WNW 05:27:13 10° NNE
FALCON 9 DEB 3.3 05:21:07 40° WNW 05:21:58 53° NNW 05:25:19 10° ENE
Cosmos 1862 3.3 05:19:17 10° SSW 05:23:09 56° WNW 05:27:04 10° N
COSMO-SKYMED 1 3.2 05:20:13 10° SSW 05:24:08 33° W 05:25:48 25° NW
Nadezhda 4 Rocket 4.4 05:20:12 10° S 05:26:17 68° E 05:32:28 10° NNE
H-2A R/B 3.4 05:23:50 10° N 05:27:07 30° WNW 05:30:23 10° SW
H-2A R/B 4.3 05:29:39 10° NE 05:33:43 25° E 05:37:46 10° SSE
Meteor 2-15 Rocket 4.4 05:28:18 10° N 05:34:25 90° W 05:40:29 10° S
Cosmos 2228 Rocket 4.5 05:30:36 10° N 05:34:51 40° ENE 05:39:06 10° SE
CZ-4B R/B 2.6 05:32:59 10° NNE 05:36:36 82° ESE 05:40:09 10° SSW
Lacrosse 4 Rocket 4.1 05:36:17 10° NNE 05:37:24 11° NNE 05:38:32 10° NE
CZ-4B R/B 2.6 05:36:51 10° SE 05:40:01 42° ENE 05:43:10 10° N
Cosmos 1408 Rocket 3.4 05:37:56 10° SSW 05:42:14 76° W 05:46:34 10° N
Cosmos 783 Rocket 4.5 05:37:53 10° NNW 05:43:04 69° WSW 05:48:13 10° S
CZ-4C R/B 3.9 05:42:29 10° SSW 05:45:07 24° W 05:46:01 21° WNW
Cosmos 1656 Rocket 3.7 05:40:01 10° SW 05:45:20 55° WNW 05:50:42 10° NNE
DMSP B5D2-2 4.1 05:40:19 10° S 05:45:28 60° W 05:50:38 10° NNW
Cosmos 1503 Rocket 4.0 05:40:27 10° SSW 05:45:41 65° WNW 05:51:01 10° NNE
USA 32 4.4 05:41:15 10° N 05:46:30 69° E 05:51:42 10° SSE
Cosmos 1743 Rocket 3.9 05:45:12 10° S 05:49:34 71° E 05:53:56 10° NNE
CZ-2C R/B 3.6 05:45:13 10° SSW 05:49:44 26° W 05:54:12 10° NW
Cosmos 2227 Rocket 4.0 05:46:14 10° N 05:50:51 25° NE 05:55:25 10° E
Cosmos 1943 Rocket 3.3 05:48:15 14° W 05:51:28 23° NW 05:55:52 10° N
FAST Rocket 4.2 05:49:09 10° S 05:51:44 72° E 05:54:47 10° NNE
Cosmos 1515 Rocket 3.8 05:52:51 10° NNW 05:57:03 46° W 06:01:12 10° SSW
Cosmos 1777 Rocket 4.2 05:52:10 10° SSW 05:57:22 79° ESE 06:02:39 10° NNE
PSLV R/B 4.4 05:53:25 10° SSE 05:57:26 62° ENE 06:01:29 10° N
SL-8 R/B 4.2 05:54:22 14° W 05:58:17 48° SSW 06:02:52 10° SE
FALCON 9 DEB 3.8 05:56:51 17° WNW 05:58:33 29° N 06:01:09 10° ENE
Meteor 1-27 Rocket 3.8 05:54:32 10° NNW 06:00:06 64° W 06:05:45 10° S
Cosmos 1602 4.4 05:58:16 10° S 06:02:00 58° E 06:05:46 10° NNE
NOAA 6 4.2 05:56:58 10° NNE 06:02:08 77° ESE 06:07:14 10° S
COSMOS 2487 2.7 06:00:59 10° NNW 06:04:20 63° ENE 06:07:39 10° SSE
Cosmos 773 Rocket 4.2 05:59:36 10° NNW 06:04:40 51° WSW 06:09:40 10° S
FALCON 9 DEB 3.9 06:03:16 14° NW 06:05:12 28° N 06:07:45 10° ENE
SJ 16-02 1.4 06:02:32 10° SSW 06:06:55 89° ESE 06:11:20 10° NNE
FALCON 9 DEB 3.9 06:05:15 13° NW 06:07:18 28° N 06:09:51 10° ENE
NOAA 11 4.5 06:02:47 10° N 06:07:58 44° WNW 06:13:08 10° SW
CENTAUR R/B 3.5 06:03:26 10° W 06:09:10 32° NNW 06:15:53 10° NE
Alouette 2 Rocket 3.2 06:06:40 10° NNW 06:10:36 65° W 06:14:06 10° S
NOAA 12 4.1 06:08:02 10° N 06:13:14 59° WNW 06:18:22 10° SSW
Envisat 4.2 06:10:19 10° NNW 06:13:50 19° WNW 06:17:22 10° WSW
Cosmos 1340 Rocket 2.8 06:11:10 10° SSW 06:15:04 64° WNW 06:19:03 10° N
SL-27 R/B 3.3 06:14:38 10° NW 06:17:52 32° WSW 06:21:04 10° SSW
Cosmos 1500 Rocket 3.7 06:14:07 10° SSW 06:18:30 56° WNW 06:22:55 10° N
Cosmos 1939 Rocket 3.1 06:16:01 10° N 06:19:49 46° WNW 06:23:33 10° SW
Cosmos 2219 4.5 06:16:30 10° NNW 06:21:44 37° NE 06:26:57 10° ESE
FALCON 9 DEB 3.9 06:21:42 10° WNW 06:24:17 28° N 06:26:52 10° ENE
NOSS 3-2 (C) 4.4 06:22:33 10° W 06:27:47 30° NNW 06:33:47 10° NE
Cosmos 1707 Rocket 4.0 06:24:27 10° N 06:28:52 69° E 06:33:17 10° SSE
Cosmos 1805 Rocket 3.5 06:25:44 10° SSW 06:30:06 71° W 06:34:30 10° N
Okean O Rocket 3.0 06:26:03 10° NNE 06:30:20 45° E 06:34:34 10° S
CZ-4B R/B 4.1 06:25:58 10° NNE 06:31:10 54° E 06:36:22 10° S
Cosmos 2026 Rocket 4.1 06:26:31 10° SSW 06:32:52 81° W 06:39:12 10° N
